Regional Weather Roundup
Issued by NWS

Home | Current Version | Previous Version | Graphics & Text | Print | Product List | Glossary Off
Versions: 1 2 3 4 5 6 7 8 9 10 11 12 13 14 15 16 17 18 19 20 21 22 23 24 25 26 27 28 29 30 31 32 33 34 35 36 37 38 39 40 41 42 43 44 45 46 47 48 49 50

827
ASUS43 KMPX 202201
RWRMN
WEATHER ROUNDUP FOR MINNESOTA
NATIONAL WEATHER SERVICE TWIN CITIES/CHANHASSEN MN
400 PM CST MON NOV 20 2017


NOTE: "FAIR" INDICATES FEW OR NO CLOUDS BELOW 12,000 FEET WITH NO
SIGNIFICANT WEATHER AND/OR OBSTRUCTIONS TO VISIBILITY. N/A MEANS
CURRENT SKY AND/OR WEATHER CONDITIONS ARE NOT AVAILABLE.

MNZ060>063-068>070-202300-
   Twin Cities Metro

CITY           SKY/WX    TMP DP  RH WIND       PRES   REMARKS
TWIN CITIES    CLOUDY    47  31  53 SW9       29.46S
ST PAUL        CLOUDY    45  31  58 S6        29.47S
CRYSTAL        CLOUDY    45  28  51 S7        29.44S
BLAINE         MOCLDY    46  30  53 S12       29.44S
LAKEVILLE        N/A     46  30  53 SW8       29.46F
EDEN PRAIRIE   CLOUDY    47  31  53 S10       29.44F
SOUTH ST PAUL  CLOUDY    46  31  54 SW6       29.46F
LAKE ELMO      FAIR      45  32  61 S9        29.46F
$$
MNZ001>005-007-008-013>017-022>024-027-028-202300-
   Northwest Minnesota

CITY           SKY/WX    TMP DP  RH WIND       PRES   REMARKS
BEMIDJI        CLEAR     42  25  49 SW12G17   29.27S
HALLOCK        CLOUDY    39  32  75 W15       29.23R
ROSEAU         CLOUDY    37  30  75 SW10      29.20R
WARROAD        CLOUDY    37  30  75 SW9       29.18F
CROOKSTON      CLOUDY    45  30  57 W24       29.30R
FOSSTON        PTCLDY    39  28  65 SW12      29.30R
DETROIT LAKES  CLEAR     46  27  46 SW10      29.35S
MOORHEAD       CLEAR     52  25  35 W16       29.36R
PARK RAPIDS    CLOUDY    43  26  51 W10       29.33R
MAHNOMEN       FAIR      45  28  52 SW15      29.30F
$$
MNZ006-009>011-018-025>026-202300-
   North Central Minnesota

CITY           SKY/WX    TMP DP  RH WIND       PRES   REMARKS
BAUDETTE       CLOUDY    39  27  62 SW9       29.19R
FLAG ISLAND    CLOUDY    37  27  65 SW12      29.15S
INTL FALLS     CLOUDY    41  25  53 SW9       29.20F
WASKISH        MOCLDY    37  28  70 SW9       29.24R
BIG FORK       CLOUDY    39  27  60 S7        29.24R
LONGVILLE      CLOUDY    43  27  52 SW10      29.31R
GRAND RAPIDS   CLOUDY    41  27  57 SW13      29.29F
CRANE LAKE     PTCLDY    37  27  65 S8        29.24F
ORR            MOCLDY    39  25  56 S5        29.21F
COOK           MOCLDY    39  27  60 S8        29.24F
WALKER         FAIR      42  25  50 SW10G20   29.29R
$$
MNZ012-019>021-037-202300-
   Northeast Minnesota

CITY           SKY/WX    TMP DP  RH WIND       PRES   REMARKS
DULUTH         CLOUDY    32  28  85 S8        29.32F WCI  25
ELY            CLOUDY    39  27  60 S6        29.26F
HIBBING        CLOUDY    38  26  62 S5        29.28S
EVELETH        CLOUDY    37  25  60 S8        29.30S
DULUTH HARBOR  PTCLDY    36  30  80 CALM      29.36F
TWO HARBORS    CLOUDY    36  28  75 CALM      29.32F
SILVER BAY     CLOUDY    34  28  80 CALM      29.32F
GRAND MARAIS     N/A     36  31  82 E6        29.36F
G MARAIS ARPRT CLOUDY    28  25  86 SE5       29.31F WCI  23
$$
MNZ029>031-032-039>041-046>048-054>057-064-202300-
   West Central Minnesota

CITY           SKY/WX    TMP DP  RH WIND       PRES   REMARKS
FERGUS FALLS   CLOUDY    46  28  49 W7        29.40S
WHEATON        CLOUDY    52  21  30 W10       29.44R
MORRIS         CLOUDY    45  30  57 W7        29.42R
ALEXANDRIA     CLOUDY    41  29  62 W8        29.41R
ELBOW LAKE     FAIR      46  26  46 NW7       29.41R
WADENA         CLOUDY    43  28  56 W12       29.36R
GLENWOOD       CLOUDY    45  28  53 W15       29.41R
APPLETON         N/A     52  21  30 W13       29.42R
BENSON         CLOUDY    48  27  43 W8        29.43R
ORTONVILLE     CLOUDY    52  25  35 MISG      29.44R
MADISON        CLOUDY    55  23  28 W9        29.44R
WILLMAR        FAIR      45  34  65 SW5       29.43S
$$
MNZ033>034-036-042>043-049>051-058-059-202300-
   Central Minnesota

CITY           SKY/WX    TMP DP  RH WIND       PRES   REMARKS
ST CLOUD       CLOUDY    39  30  70 S6        29.39F
SAUK CENTRE    FAIR      41  30  65 W9        29.40R
PAYNESVILLE    CLOUDY    43  32  66 SW10      29.40S
AITKIN         CLOUDY    37  27  65 S9        29.32S
PINE RIVER     CLOUDY    39  27  60 SW6       29.38R
BRAINERD       CLOUDY    39  28  64 SW12      29.36R
STAPLES        CLOUDY    41  27  56 SW8       29.37R
LONG PRAIRIE   FAIR      39  30  70 S7        29.38R
LITTLE FALLS   CLOUDY    37  25  60 CALM      29.39R
LITCHFIELD     CLOUDY    46  30  53 CALM      29.42F
BUFFALO        PTCLDY    43  31  62 S7        29.42F
MAPLE LAKE     CLOUDY    42  33  70 S7        29.41F
HUTCHINSON     CLOUDY    47  31  53 S7        29.44S
$$
MNZ037-044-045-052-053-202300-
   East Central Minnesota

CITY           SKY/WX    TMP DP  RH WIND       PRES   REMARKS
PRINCETON      MOCLDY    41  30  65 S6        29.41F
MORA           CLOUDY    37  28  70 SW10      29.41S
CAMBRIDGE      PTCLDY    43  28  56 S8        29.40F
RUSH CITY      CLOUDY    40  29  64 S8        29.41R
MOOSE LAKE     CLOUDY    37  28  70 S12       29.34F
HINCKLEY       FAIR      37  32  81 S9        29.39S
CLOQUET        CLOUDY    37  27  65 S10       29.33S
MCGREGOR       CLOUDY    37  30  75 S12       29.34S
$$
MNZ071>073-080-081-089-090-097-098-202300-
   Southwest Minnesota

CITY           SKY/WX    TMP DP  RH WIND       PRES   REMARKS
MONTEVIDEO     CLOUDY    52  28  40 W7        29.42R
GRANITE FALLS  CLOUDY    52  30  43 SW10      29.45S
CANBY          CLOUDY    53  25  32 SW13      29.46R
MARSHALL       CLOUDY    53  26  35 W15       29.46R
REDWOOD FALLS  CLOUDY    49  27  42 SW10      29.44S
OLIVIA         CLOUDY    46  30  53 SW10      29.43R
PIPESTONE      CLOUDY    45  27  49 W8        29.51R
WINDOM         CLOUDY    46  27  46 SW13      29.50R
WORTHINGTON    CLOUDY    46  27  47 SW13G23   29.53R
JACKSON        PTCLDY    45  28  53 SW14      29.53R
SLAYTON        CLOUDY    47  28  46 SW16      29.49S
$$
MNZ065>067-074>077-082>085-091>093-202300-
   South Central Minnesota

CITY           SKY/WX    TMP DP  RH WIND       PRES   REMARKS
MANKATO        MOCLDY    48  30  49 SW12      29.49S
NEW ULM        CLOUDY    46  27  46 CALM      29.47S
ST JAMES       CLOUDY    48  27  43 SW10      29.51R
FAIRMONT       MOCLDY    46  29  51 SW15      29.52R
GLENCOE        CLOUDY    48  31  51 S9        29.44S
FARIBAULT      CLOUDY    48  32  53 S13       29.49F
OWATONNA       CLOUDY    48  34  57 S14       29.50S
WASECA         MOCLDY    46  30  53 SW16G22   29.51S
ALBERT LEA     PTCLDY    50  28  43 SW10      29.52R
$$
MNZ078>079-086>088-094>096-202300-
   Southeast Minnesota

CITY           SKY/WX    TMP DP  RH WIND       PRES   REMARKS
ROCHESTER      CLOUDY    47  34  60 SW16      29.51R
RED WING       CLOUDY    48  28  46 W7        29.49R
STANTON        CLOUDY    48  33  56 S10G16    29.46F
DODGE CENTER   CLOUDY    46  30  53 SW14      29.51R
WINONA         PTCLDY    52  32  46 S5        29.52S
PRESTON        PTCLDY    48  32  52 S13       29.52S
$$
ABBREVIATIONS USED IN REMARKS
   TC - TEMPERATURES IN CELSIUS
  WCI - WIND CHILL INDEX
   HX - HEAT INDEX
  VSB - VISIBILITY
$$




USA.gov is the U.S. government's official web portal to all federal, state and local government web resources and services.